Weather History for K0E0 - March, 2013

Change the Weather History Date:

Friday, March 29, 2013

  Actual Average (KABQ) Record (KABQ)
Temperature  
Mean Temperature 53 °F 51 °F  
Max Temperature 71 °F 64 °F 81 °F (1943)
Min Temperature 35 °F 38 °F 18 °F (1987)
Degree Days  
Heating Degree Days 12 14  
Month to date heating degree days 497  
Since 1 July heating degree days 3800  
Cooling Degree Days 0 0  
Month to date cooling degree days 0  
Year to date cooling degree days 0  
Growing Degree Days 3 (Base 50)    
Moisture  
Dew Point 17 °F    
Average Humidity 29    
Maximum Humidity 55    
Minimum Humidity 9    
Precipitation  
Precipitation 0.00 in 0.02 in 0.90 in (1973)
Month to date precipitation 0.53  
Year to date precipitation 1.39  
Snow  
Snow 0.00 in - - ()
Month to date snowfall  
Since 1 July snowfall  
Snow Depth -    
Sea Level Pressure  
Sea Level Pressure 30.19 in    
Wind  
Wind Speed 4 mph (WNW)    
Max Wind Speed 18 mph    
Max Gust Speed 25 mph    
Visibility 10 miles    
Events      
T = Trace of Precipitation, MM = Missing Value Source: NWS Daily Summary

Daily Weather History Graph

Daily Weather History Graph

Search for Another Location

Airport or City:

Trip Planner

Search our weather history database for the weather conditions in past years. The results will help you decide how hot, cold, wet, or windy it might be!

Date:

Astronomy

Mar. 29, 2013 Rise Set
Actual Time 6:54 AM MDT 7:23 PM MDT
Civil Twilight 6:29 AM MDT 7:48 PM MDT
Nautical Twilight 5:59 AM MDT 8:18 PM MDT
Astronomical Twilight 5:29 AM MDT 8:48 PM MDT
Moon 10:18 PM MDT 8:12 AM MDT
Length of Visible Light 13h 19m
Length of Day
12h 28m
Waning Gibbous, 93% of the Moon is Illuminated
Mar 29
Waning Gibbous
Apr 2
Last Quarter
Apr 10
New
Apr 18
First Quarter
Apr 25
Full

Hourly Weather History & Observations

Time (MDT) Temp. Windchill Dew Point Humidity Pressure Visibility Wind Dir Wind Speed Gust Speed Precip Events Conditions
12:15 AM 48.7 °F - 20.3 °F 33% 30.18 in 10.0 mi West 3.5 mph - N/A   Mostly Cloudy
12:35 AM 46.6 °F - 20.3 °F 35% 30.18 in 10.0 mi North 4.6 mph - N/A   Mostly Cloudy
12:55 AM 46.4 °F - 19.6 °F 34% 30.18 in 10.0 mi Calm Calm - N/A   Overcast
1:15 AM 46.2 °F - 20.1 °F 35% 30.18 in 10.0 mi Calm Calm - N/A   Overcast
1:35 AM 46.4 °F - 20.8 °F 36% 30.19 in 10.0 mi Calm Calm - N/A   Mostly Cloudy
1:55 AM 45.1 °F 43.7 °F 20.8 °F 38% 30.19 in 10.0 mi WSW 3.5 mph - N/A   Scattered Clouds
2:15 AM 42.3 °F - 19.2 °F 40% 30.19 in 10.0 mi Calm Calm - N/A   Clear
2:35 AM 42.4 °F 39.6 °F 20.3 °F 41% 30.20 in 10.0 mi South 4.6 mph - N/A   Clear
2:55 AM 42.1 °F - 21.0 °F 43% 30.19 in 10.0 mi Calm Calm - N/A   Clear
3:15 AM 42.6 °F 40.9 °F 21.0 °F 42% 30.18 in 10.0 mi SSE 3.5 mph - N/A   Clear
3:35 AM 37.2 °F 34.7 °F 19.2 °F 48% 30.19 in 10.0 mi ENE 3.5 mph - N/A   Clear
3:55 AM 37.0 °F - 19.4 °F 49% 30.19 in 10.0 mi Calm Calm - N/A   Clear
4:15 AM 36.7 °F - 19.2 °F 49% 30.18 in 10.0 mi Calm Calm - N/A   Clear
4:35 AM 35.8 °F - 18.9 °F 50% 30.18 in 10.0 mi Calm Calm - N/A   Clear
4:55 AM 35.4 °F 32.6 °F 19.4 °F 52% 30.18 in 10.0 mi ENE 3.5 mph - N/A   Clear
5:15 AM 35.6 °F 32.8 °F 20.7 °F 55% 30.19 in 10.0 mi North 3.5 mph - N/A   Clear
5:35 AM 36.0 °F - 20.5 °F 53% 30.19 in 10.0 mi Calm Calm - N/A   Clear
5:55 AM 35.1 °F 32.2 °F 20.3 °F 55% 30.20 in 10.0 mi NNE 3.5 mph - N/A   Clear
6:15 AM 35.2 °F 32.4 °F 20.3 °F 55% 30.20 in 10.0 mi North 3.5 mph - N/A   Clear
6:35 AM 36.0 °F 31.1 °F 21.0 °F 55% 30.21 in 10.0 mi NNE 5.8 mph - N/A   Clear
6:55 AM 38.5 °F 35.0 °F 21.9 °F 51% 30.21 in 10.0 mi NE 4.6 mph - N/A   Clear
7:15 AM 36.9 °F 33.1 °F 21.4 °F 54% 30.22 in 10.0 mi NNE 4.6 mph - N/A   Clear
7:35 AM 35.8 °F - 20.1 °F 53% 30.23 in 10.0 mi Calm Calm - N/A   Clear
7:55 AM 37.2 °F 33.6 °F 20.5 °F 51% 30.23 in 10.0 mi North 4.6 mph - N/A   Clear
8:15 AM 39.6 °F - 21.0 °F 48% 30.23 in 10.0 mi Calm Calm - N/A   Clear
8:35 AM 42.3 °F - 22.1 °F 45% 30.23 in 10.0 mi Calm Calm - N/A   Clear
8:55 AM 46.6 °F - 22.3 °F 38% 30.24 in 10.0 mi Calm Calm - N/A   Clear
9:15 AM 51.3 °F - 22.1 °F 32% 30.25 in 10.0 mi Calm Calm - N/A   Clear
9:35 AM 53.8 °F - 21.6 °F 28% 30.25 in 10.0 mi Calm Calm - N/A   Clear
9:55 AM 57.7 °F - 22.1 °F 25% 30.24 in 10.0 mi Calm Calm - N/A   Clear
10:15 AM 62.8 °F - 21.0 °F 20% 30.24 in 10.0 mi NNW 11.5 mph - N/A   Clear
10:55 AM 64.9 °F - 19.2 °F 17% 30.23 in 10.0 mi West 8.1 mph - N/A   Clear
11:15 AM 67.5 °F - 19.2 °F 16% 30.23 in 10.0 mi West 4.6 mph 16.1 mph N/A   Clear
11:35 AM 62.4 °F - 19.0 °F 19% 30.23 in 10.0 mi NW 6.9 mph - N/A   Clear
11:55 AM 63.5 °F - 18.0 °F 17% 30.22 in 10.0 mi Calm Calm - N/A   Clear
12:15 PM 68.0 °F - 16.0 °F 14% 30.21 in 10.0 mi West 5.8 mph - N/A   Clear
12:35 PM 66.9 °F - 9.7 °F 11% 30.20 in 10.0 mi SSW 6.9 mph - N/A   Clear
12:55 PM 70.9 °F - 10.6 °F 10% 30.19 in 10.0 mi West 11.5 mph - N/A   Clear
1:15 PM 71.4 °F - 12.9 °F 11% 30.18 in 10.0 mi NW 8.1 mph 21.9 mph N/A   Clear
1:35 PM 70.3 °F - 13.6 °F 11% 30.18 in 10.0 mi WNW 18.4 mph 23.0 mph N/A   Clear
1:55 PM 69.1 °F - 9.3 °F 10% 30.17 in 10.0 mi West 15.0 mph 19.6 mph N/A   Clear
2:15 PM 69.8 °F - 8.8 °F 9% 30.17 in 10.0 mi West 16.1 mph 19.6 mph N/A   Clear
2:35 PM 69.3 °F - 9.7 °F 10% 30.16 in 10.0 mi WNW 10.4 mph 19.6 mph N/A   Clear
2:55 PM 70.3 °F - 9.5 °F 9% 30.16 in 10.0 mi WNW 12.7 mph 20.7 mph N/A   Clear
3:15 PM 70.2 °F - 10.0 °F 10% 30.15 in 10.0 mi West 9.2 mph 21.9 mph N/A   Clear
3:35 PM 70.9 °F - 12.6 °F 11% 30.15 in 10.0 mi WNW 9.2 mph 23.0 mph N/A   Clear
3:55 PM 71.2 °F - 13.8 °F 11% 30.14 in 10.0 mi West 12.7 mph 25.3 mph N/A   Clear
4:15 PM 71.4 °F - 13.6 °F 11% 30.14 in 10.0 mi West 13.8 mph 20.7 mph N/A   Clear
4:35 PM 69.8 °F - 14.5 °F 12% 30.14 in 10.0 mi NW 5.8 mph - N/A   Clear
4:55 PM 70.2 °F - 14.9 °F 12% 30.13 in 10.0 mi WNW 10.4 mph 16.1 mph N/A   Clear
5:15 PM 70.0 °F - 14.4 °F 12% 30.14 in 10.0 mi West 12.7 mph 21.9 mph N/A   Clear
5:35 PM 69.8 °F - 14.5 °F 12% 30.13 in 10.0 mi West 10.4 mph 13.8 mph N/A   Scattered Clouds
5:55 PM 69.1 °F - 14.7 °F 12% 30.13 in 10.0 mi WNW 16.1 mph 19.6 mph N/A   Scattered Clouds
6:15 PM 68.2 °F - 15.4 °F 13% 30.13 in 10.0 mi West 11.5 mph 21.9 mph N/A   Clear
6:35 PM 67.1 °F - 15.6 °F 14% 30.14 in 10.0 mi West 9.2 mph - N/A   Clear
6:55 PM 65.5 °F - 15.4 °F 14% 30.14 in 10.0 mi West 10.4 mph - N/A   Clear
7:15 PM 62.4 °F - 14.9 °F 16% 30.14 in 10.0 mi West 10.4 mph - N/A   Clear
7:35 PM 59.2 °F - 14.4 °F 17% 30.15 in 10.0 mi West 9.2 mph - N/A   Clear
7:55 PM 56.5 °F - 14.9 °F 19% 30.16 in 10.0 mi West 6.9 mph - N/A   Clear
8:15 PM 54.0 °F - 14.2 °F 21% 30.16 in 10.0 mi West 8.1 mph - N/A   Clear
8:35 PM 52.5 °F - 14.7 °F 22% 30.17 in 10.0 mi West 5.8 mph - N/A   Clear
8:55 PM 52.7 °F - 15.6 °F 23% 30.18 in 10.0 mi West 8.1 mph - N/A   Clear
9:15 PM 47.1 °F - 13.6 °F 26% 30.18 in 10.0 mi NNW 3.5 mph - N/A   Clear
9:35 PM 48.2 °F - 13.6 °F 25% 30.19 in 10.0 mi North 5.8 mph - N/A   Clear
9:55 PM 44.4 °F 41.2 °F 13.8 °F 29% 30.19 in 10.0 mi NW 5.8 mph - N/A   Clear
10:15 PM 41.0 °F 39.0 °F 12.7 °F 32% 30.20 in 10.0 mi NNE 3.5 mph - N/A   Clear
10:35 PM 43.5 °F 41.9 °F 14.2 °F 31% 30.20 in 10.0 mi ENE 3.5 mph - N/A   Clear
10:55 PM 41.4 °F 36.8 °F 12.6 °F 31% 30.21 in 10.0 mi NNE 6.9 mph - N/A   Clear
11:15 PM 42.8 °F 41.1 °F 13.5 °F 30% 30.21 in 10.0 mi NNW 3.5 mph - N/A   Clear
11:35 PM 41.0 °F - 12.7 °F 32% 30.21 in 10.0 mi Calm Calm - N/A   Clear
11:55 PM 42.3 °F 40.5 °F 12.7 °F 30% 30.22 in 10.0 mi North 3.5 mph - N/A   Clear